This demonstration page uses our WeatherBlox Daily Observations layout. Learn more.

41.55636, -103.73856

Hourly Observations for November 8, 2015

Temp ( °F °C ) Dew Point ( °F °C ) Humidity (%) Winds ( mph kmh ) Pressure ( in mb ) Visibility ( mi km ) Precip ( " mm )
12:53 am 00:53 Clear 26 -3.3 20 -6.7 78 78 NE 3 6 30.11 1020 10 16.0934 0 0
1:53 am 01:53 Clear 26 -3.3 19 -7.2 75 75 Calm 30.09 1019 10 16.0934 0 0
2:53 am 02:53 Clear 26 -3.3 18 -7.8 71 71 Calm 30.08 1019 10 16.0934 0 0
3:53 am 03:53 Clear 24 -4.4 18 -7.8 77 77 N 3 6 30.07 1018 10 16.0934 0 0
4:53 am 04:53 Clear 22 -5.6 17 -8.3 82 82 ENE 3 6 30.09 1019 10 16.0934 0 0
5:53 am 05:53 Clear 22 -5.6 17 -8.3 82 82 NE 5 7 30.1 1019 10 16.0934 0 0
6:53 am 06:53 Sunny 23 -5 17 -8.3 78 78 E 3 6 30.1 1019 10 16.0934 0 0
7:53 am 07:53 Sunny 32 0 25 -3.9 75 75 N 3 6 30.09 1019 10 16.0934 0 0
8:53 am 08:53 Sunny 38 3.3 27 -2.8 65 65 Calm 30.05 1018 10 16.0934 0 0
9:53 am 09:53 Sunny 44 6.7 27 -2.8 51 51 Calm 30.06 1018 10 16.0934 0 0
10:53 am 10:53 Sunny 49 9.4 26 -3.3 41 41 VRB 3 6 30.04 1017 10 16.0934 0 0
11:53 am 11:53 Sunny 55 12.8 23 -5 29 29 Calm 29.98 1015 10 16.0934 0 0
12:53 pm 12:53 Sunny 58 14.4 21 -6.1 24 24 W 3 6 29.96 1015 10 16.0934 0 0
1:53 pm 13:53 Sunny 61 16.1 23 -5 23 23 Calm 29.93 1014 10 16.0934 0 0
2:53 pm 14:53 Sunny 61 16.1 23 -5 23 23 SSE 5 7 29.92 1013 10 16.0934 0 0
3:53 pm 15:53 Sunny 58 14.4 26 -3.3 29 29 SE 6 9 29.94 1014 10 16.0934 0 0
4:53 pm 16:53 Clear 45 7.2 29 -1.7 54 54 ESE 12 19 29.98 1015 10 16.0934 0 0
5:53 pm 17:53 Clear 41 5 26 -3.3 55 55 ESE 7 11 29.99 1016 10 16.0934 0 0
6:53 pm 18:53 Clear 38 3.3 27 -2.8 65 65 E 7 11 30.01 1016 10 16.0934 0 0
7:53 pm 19:53 Clear 37 2.8 28 -2.2 70 70 E 8 13 29.98 1015 10 16.0934 0 0
8:53 pm 20:53 Clear 33 0.6 27 -2.8 78 78 NW 6 9 29.99 1016 10 16.0934 0 0
9:53 pm 21:53 Clear 32 0 26 -3.3 79 79 NNE 6 9 29.98 1015 10 16.0934 0 0
10:53 pm 22:53 Clear 29 -1.7 25 -3.9 85 85 NNW 5 7 29.97 1015 10 16.0934 0 0
11:53 pm 23:53 Clear 28 -2.2 24 -4.4 85 85 N 5 7 29.96 1015 10 16.0934 0 0

Powered by AerisWeather